Dewpoint
57 57 57 57 57 57 57 57 57 57 56 56 56 56 56 56 56 56 56 56 55 55 55 56 57 58 52 30 22 38 67 70 45 33 28 29 31 35 36 34 33 33 31 31 33 48 50
57 57 58 58 58 57 57 57 57 57 57 56 56 56 56 56 55 55 55 55 54 54 55 56 57 59 45 23 29 49 52 48 30 30 28 29 31 35 33 34 33 31 30 32 37 48 51
57 57 57 58 58 57 57 57 57 57 57 56 56 56 56 55 55 55 54 54 54 55 55 56 57 54 38 25 34 44 38 30 30 26 28 30 32 30 33 34 32 30 29 34 42 44 43
57 57 57 57 57 58 58 57 57 57 57 57 56 56 55 55 54 54 53 53 53 55 56 56 57 50 29 31 33 36 34 30 28 28 30 31 31 30 31 34 32 29 30 33 36 34 42
57 57 57 57 58 58 57 57 57 57 57 57 57 56 55 55 54 53 53 53 55 57 56 57 52 42 23 43 30 32 36 31 28 28 30 28 30 30 31 31 31 30 29 30 32 38 33
57 57 57 57 57 57 57 57 57 57 57 57 56 56 56 55 55 54 52 53 58 58 56 54 49 40 29 22 27 34 35 29 23 27 26 27 28 29 31 30 28 27 26 28 30 31 29
56 56 57 57 57 57 57 57 57 57 57 56 56 55 55 55 54 52 50 50 46 47 44 32 28 29 31 33 30 32 32 27 20 24 21 25 27 28 28 28 30 30 28 25 29 29 27
55 56 56 57 57 57 57 57 57 57 57 56 56 55 55 54 54 53 48 39 37 38 36 39 39 37 33 35 23 28 34 28 23 16 20 25 21 26 28 30 29 27 24 25 27 25 24
56 56 57 57 57 57 56 56 56 56 56 55 55 54 54 53 51 48 42 37 39 39 34 33 36 34 34 34 27 23 28 27 25 23 20 17 18 23 26 27 27 22 20 24 25 24 24
57 57 57 57 57 56 56 56 56 56 55 55 54 54 53 52 48 45 40 41 41 40 32 33 35 37 35 34 29 31 25 26 26 22 21 19 17 21 20 21 22 16 15 17 21 23 22
57 57 57 57 57 56 56 55 56 55 55 54 54 53 51 50 44 43 43 41 39 39 23 33 35 39 34 30 28 30 28 26 24 25 26 18 20 20 17 15 16 16 16 19 20 21 23
57 57 57 57 56 56 55 55 55 55 54 53 53 52 51 47 47 41 41 41 39 31 25 32 34 33 31 29 25 26 27 27 26 26 29 26 26 23 18 15 16 17 19 20 20 21 18
57 57 57 56 56 56 55 55 55 54 53 52 51 50 50 45 37 43 42 39 29 23 32 30 30 30 28 26 25 25 26 25 23 26 27 26 25 24 22 19 20 20 16 13 16 16 16
56 56 56 56 56 55 55 55 54 53 52 51 50 49 50 44 46 43 39 34 26 29 29 30 30 29 29 26 26 24 24 22 23 26 22 22 21 23 25 21 18 21 15 13 17 17 19
56 56 56 56 55 55 55 55 54 52 52 51 50 47 47 46 46 44 37 26 26 32 30 31 28 28 29 28 26 26 25 22 22 25 26 25 23 23 23 23 20 19 18 14 11 13 15
56 56 56 56 55 55 55 55 53 52 51 50 46 46 42 44 45 40 33 30 31 32 33 33 30 29 28 26 26 26 27 27 25 24 27 27 27 25 24 24 22 20 19 14 14 21 22
56 56 56 56 55 56 56 55 53 52 51 50 45 43 42 42 41 36 28 28 30 34 34 34 33 31 30 27 27 27 27 31 34 28 27 26 26 27 26 26 25 23 19 20 19 22 23
56 56 56 56 55 56 56 54 52 51 50 49 44 40 43 42 34 35 30 35 37 33 35 35 34 34 32 30 29 27 27 31 35 34 28 29 25 26 26 27 26 26 25 25 24 28 26
56 56 56 56 56 56 55 53 52 51 51 48 45 42 42 40 35 36 38 34 34 33 33 34 34 35 36 34 34 32 32 36 35 35 36 31 27 26 26 26 28 26 27 25 24 24 29
57 57 57 57 56 56 55 53 52 51 51 49 43 39 38 41 41 38 38 36 33 33 32 34 35 36 36 36 38 36 34 35 35 35 50 43 29 30 26 29 30 31 29 29 27 24 26
56 56 56 57 56 56 55 53 52 51 50 48 42 39 40 37 38 39 38 37 35 34 34 34 35 33 34 35 35 35 35 35 35 43 39 36 35 35 34 32 31 30 30 30 30 30 28
56 56 57 57 56 55 54 54 53 51 50 44 40 40 39 39 40 39 38 38 35 34 35 33 34 32 34 35 35 35 35 36 35 36 36 34 36 37 36 34 33 31 31 32 31 31 30
55 56 57 57 56 55 54 54 53 52 48 41 45 45 42 38 36 36 38 38 35 36 35 34 34 34 33 34 34 34 33 33 34 35 35 35 33 35 33 33 33 32 33 33 32 32 31
56 56 56 56 55 54 54 54 53 53 50 46 45 45 38 32 35 34 35 36 35 37 37 35 35 36 36 33 33 32 32 32 33 33 32 35 37 34 32 33 30 32 32 34 35 35 36
55 55 56 56 55 53 53 53 54 53 51 46 47 45 39 31 34 34 34 33 33 35 33 33 33 35 34 32 30 29 26 30 30 30 31 32 33 30 29 27 29 28 36 39 41 41 47
55 55 55 55 54 52 52 52 53 53 52 46 45 48 43 35 34 36 33 33 30 33 32 33 34 35 34 30 28 30 26 29 27 29 32 34 37 35 32 30 28 39 39 42 41 39 46
55 55 55 54 53 51 51 52 52 52 52 47 44 48 44 37 37 39 34 32 36 34 32 33 33 32 34 32 28 28 27 34 29 30 31 32 32 30 28 29 29 39 38 42 39 42 48
54 55 55 54 52 51 51 51 52 52 52 47 42 48 43 36 35 39 37 39 37 36 33 35 34 31 33 34 30 32 31 34 33 34 35 34 32 29 33 34 32 41 38 41 46 47 47
54 55 55 53 52 50 50 50 52 52 52 51 43 48 47 43 38 42 40 41 40 39 37 36 35 35 35 33 34 31 29 29 32 28 37 32 36 35 35 34 42 41 44 43 45 46 47
Lifted_Index
10 10 10 10 10 10 10 10 10 10 11 11 11 12 12 13 14 14 14 13 13 13 14 14 14 12 11 10 10 8 5 5 7 8 8 7 6 5 5 5 4 3 2 1 0 -1 -2
10 10 10 9 10 10 10 10 10 10 10 10 10 11 12 12 13 14 14 13 13 13 14 14 14 12 10 10 10 8 7 7 8 8 8 7 7 6 5 5 5 4 3 2 1 -1 -2
9 9 9 9 9 10 10 10 10 10 10 10 10 10 11 11 12 13 13 13 13 13 13 14 13 11 10 10 10 9 9 9 9 9 8 8 7 6 5 5 5 4 4 3 1 0 -0
9 9 9 9 9 9 10 10 10 10 10 10 10 10 10 11 12 13 13 13 13 12 13 13 12 10 10 11 11 10 9 9 9 9 9 8 7 6 5 5 4 4 3 3 2 2 1
10 10 10 9 9 9 9 9 9 9 9 9 9 10 10 10 11 12 12 12 12 12 12 11 10 9 10 10 10 10 9 9 9 9 8 8 7 6 5 4 4 4 3 3 3 3 3
11 10 10 10 9 9 9 9 9 9 9 9 9 9 9 10 11 12 12 11 11 10 10 9 9 9 9 10 10 9 9 9 9 9 8 7 6 5 5 4 4 4 4 3 3 4 4
11 11 11 10 9 9 8 9 9 9 9 9 9 9 9 10 10 11 11 10 9 8 8 8 8 8 9 9 9 9 9 9 9 8 8 7 6 5 5 5 4 4 4 4 4 4 4
12 12 11 10 9 8 8 8 8 8 8 8 9 9 9 10 10 11 11 10 9 8 7 7 8 8 9 9 9 9 9 9 8 8 7 6 6 6 6 5 5 5 4 4 5 5 5
12 12 11 10 9 8 8 8 8 8 8 8 8 9 9 9 10 10 11 10 9 8 7 7 7 8 8 8 8 9 9 8 8 7 7 6 6 6 6 6 5 5 5 5 5 5 5
12 11 10 9 8 8 8 8 7 7 7 7 8 8 9 9 9 9 9 9 9 8 6 6 7 7 7 7 7 8 8 8 7 7 7 7 6 6 6 6 6 5 5 5 5 4 4
11 11 10 9 8 8 8 7 7 7 7 7 8 8 8 9 8 8 9 9 8 6 5 5 6 7 7 7 7 7 8 7 7 6 6 6 6 6 6 6 6 6 6 5 5 4 4
10 10 10 9 9 8 7 7 7 7 7 8 8 8 8 9 8 8 8 8 7 5 4 4 5 6 6 6 6 6 7 7 6 5 5 5 6 6 6 6 6 6 5 5 4 3 2
10 11 10 10 9 8 7 7 7 7 8 8 8 8 8 9 8 8 8 7 5 4 4 4 4 5 5 5 5 5 6 5 5 4 4 4 5 5 6 6 6 6 4 3 1 1 0
11 11 11 9 8 7 6 7 7 8 8 8 7 7 8 8 8 7 7 5 4 4 4 4 4 4 4 4 4 5 5 5 4 4 3 3 4 5 5 5 5 5 4 2 0 -0 -0
11 11 9 8 7 6 6 7 8 8 9 8 7 6 7 7 8 7 6 5 4 4 4 4 3 3 3 3 4 4 4 4 4 4 3 3 3 4 5 5 5 5 4 3 1 1 0
10 9 8 7 6 6 7 8 8 9 9 8 7 6 6 7 7 6 5 5 4 4 4 4 3 2 2 3 3 3 3 3 3 3 3 3 3 3 4 4 4 4 4 3 2 1 1
8 8 7 7 7 7 7 8 9 9 9 8 6 5 6 7 6 5 5 5 5 5 4 4 3 2 2 2 2 2 2 2 2 2 3 2 2 2 2 2 2 3 3 2 2 1 0
7 7 7 7 7 7 7 8 9 10 9 8 5 5 6 7 6 5 5 5 5 5 5 4 3 3 3 2 2 2 2 2 2 2 2 2 2 2 1 1 1 2 2 1 1 0 0
7 7 7 8 8 7 8 9 10 10 10 7 5 5 6 6 5 4 5 5 5 5 5 5 4 4 3 3 2 2 2 3 3 2 2 2 2 1 1 0 1 1 1 1 0 -0 -0
7 7 8 8 8 8 8 9 10 11 10 8 5 5 5 6 5 5 5 5 5 6 6 5 5 4 4 3 3 3 3 3 3 3 2 2 2 1 1 1 1 1 1 1 0 -0 -0
8 8 8 9 9 8 8 9 11 11 10 8 6 6 5 5 5 5 5 5 5 5 5 5 5 5 4 3 3 3 3 3 3 3 3 2 2 1 1 1 1 1 1 0 0 0 -0
8 8 8 9 9 9 9 10 11 11 11 9 8 7 7 6 6 6 6 6 6 6 6 6 5 5 5 4 4 4 4 4 3 3 3 2 2 1 1 1 1 1 1 1 0 0 0
8 9 9 9 9 9 9 10 11 12 11 10 10 9 8 7 7 7 7 7 7 7 7 7 6 6 6 6 6 5 5 5 4 4 3 3 2 2 2 1 1 1 1 0 0 0 -0
9 9 9 9 9 9 9 10 11 12 12 11 11 10 9 8 8 8 8 8 8 8 8 8 8 8 7 7 7 6 6 5 5 4 4 3 3 2 2 1 1 1 0 -0 -0 -1 -1
10 10 9 9 9 9 10 10 11 12 12 12 12 11 10 9 9 9 9 9 9 9 9 9 9 9 9 8 7 6 5 5 4 4 3 3 2 2 1 1 0 -0 -1 -1 -1 -2 -2
10 10 9 9 9 10 10 10 12 12 13 13 13 12 11 10 10 10 10 10 10 9 9 9 9 9 9 7 6 5 4 4 3 3 2 2 1 1 0 -0 -1 -1 -1 -1 -2 -2 -2
10 10 10 9 10 10 10 11 12 13 14 14 14 13 12 11 10 10 10 10 10 9 9 9 9 9 8 6 5 4 3 3 2 1 1 0 0 -0 -1 -2 -2 -1 -1 -1 -2 -2 -1
10 10 10 10 10 10 10 11 13 14 15 14 14 14 13 11 11 11 11 10 10 9 9 9 9 8 7 6 5 4 3 2 1 1 -0 -0 -1 -1 -1 -2 -1 -1 -1 -1 -2 -1 -1
10 10 10 10 10 10 11 12 13 14 15 15 14 13 13 12 12 11 11 10 10 10 9 9 8 8 7 6 5 4 3 2 1 1 -0 -0 -1 -1 -1 -1 -1 -1 -1 -1 -1 -1 -1